Radiation Dose at Monitoring Post of Fukushima Daini Nuclear Power Station
Date,Time,MP-1(microSv/h),MP-2(microSv/h),MP-3(microSv/h),MP-4(microSv/h),MP-5(microSv/h),MP-6(microSv/h),MP-7(microSv/h),Wind Direction,Wind Velocity(m/s),Rain
2021/09/14,00:00,0.160,0.147,0.232,0.223,0.231,0.125,0.079,northwest,0.8,No
2021/09/14,00:10,0.161,0.146,0.231,0.223,0.229,0.125,0.080,north-northwest,1.1,No
2021/09/14,00:20,0.159,0.145,0.231,0.224,0.231,0.125,0.079,northwest,0.8,No
2021/09/14,00:30,0.161,0.147,0.231,0.225,0.229,0.124,0.080,west,1.0,No
2021/09/14,00:40,0.160,0.146,0.231,0.222,0.231,0.124,0.080,west-northwest,0.7,No
2021/09/14,00:50,0.159,0.146,0.231,0.225,0.228,0.124,0.079,north,0.6,No
2021/09/14,01:00,0.159,0.145,0.231,0.223,0.231,0.125,0.079,-,CALM,No
2021/09/14,01:10,0.160,0.146,0.232,0.224,0.228,0.124,0.079,north,0.7,No
2021/09/14,01:20,0.160,0.145,0.230,0.223,0.232,0.125,0.079,-,CALM,No
2021/09/14,01:30,0.161,0.147,0.232,0.223,0.229,0.124,0.079,north,0.7,No
2021/09/14,01:40,0.160,0.146,0.231,0.223,0.230,0.124,0.079,north,0.7,No
2021/09/14,01:50,0.161,0.146,0.232,0.224,0.230,0.124,0.079,north-northeast,1.1,No
2021/09/14,02:00,0.159,0.145,0.231,0.224,0.230,0.124,0.080,north-northeast,1.3,No
2021/09/14,02:10,0.160,0.147,0.231,0.223,0.230,0.125,0.079,north-northeast,1.2,No
2021/09/14,02:20,0.158,0.146,0.230,0.224,0.229,0.125,0.079,north-northeast,0.8,No
2021/09/14,02:30,0.160,0.146,0.232,0.222,0.231,0.123,0.079,north,1.2,No
2021/09/14,02:40,0.159,0.146,0.232,0.223,0.229,0.125,0.078,north,0.6,No
2021/09/14,02:50,0.161,0.146,0.231,0.223,0.231,0.124,0.079,north,0.7,No
2021/09/14,03:00,0.159,0.146,0.231,0.225,0.229,0.125,0.079,north-northeast,1.1,No
2021/09/14,03:10,0.160,0.146,0.231,0.223,0.232,0.124,0.079,north,0.7,No
2021/09/14,03:20,0.159,0.147,0.231,0.224,0.228,0.125,0.079,north,0.9,No
2021/09/14,03:30,0.160,0.146,0.230,0.222,0.231,0.124,0.079,-,CALM,No
2021/09/14,03:40,0.160,0.147,0.231,0.225,0.229,0.124,0.079,-,CALM,No
2021/09/14,03:50,0.161,0.147,0.231,0.223,0.232,0.124,0.079,north-northeast,1.3,No
2021/09/14,04:00,0.160,0.145,0.232,0.224,0.229,0.124,0.080,north,1.9,No
2021/09/14,04:10,0.160,0.146,0.230,0.223,0.230,0.125,0.079,north,2.6,No
2021/09/14,04:20,0.160,0.146,0.232,0.224,0.229,0.124,0.079,north-northwest,2.8,No
2021/09/14,04:30,0.159,0.145,0.230,0.222,0.229,0.124,0.079,north-northwest,2.6,No
2021/09/14,04:40,0.159,0.147,0.232,0.225,0.230,0.124,0.079,north,1.3,No
2021/09/14,04:50,0.159,0.146,0.231,0.222,0.228,0.124,0.079,north-northeast,3.0,No
2021/09/14,05:00,0.160,0.147,0.233,0.224,0.231,0.125,0.079,northeast,2.0,No
2021/09/14,05:10,0.160,0.146,0.229,0.222,0.228,0.124,0.079,north-northwest,3.0,No
2021/09/14,05:20,0.160,0.146,0.232,0.225,0.231,0.124,0.080,north,2.6,No
2021/09/14,05:30,0.159,0.146,0.231,0.223,0.227,0.123,0.079,north,2.9,No
2021/09/14,05:40,0.160,0.147,0.232,0.224,0.231,0.124,0.080,north-northwest,2.6,No
2021/09/14,05:50,0.159,0.145,0.230,0.223,0.229,0.124,0.079,north-northwest,2.8,No
2021/09/14,06:00,0.159,0.146,0.232,0.223,0.230,0.124,0.079,north-northwest,2.5,No
2021/09/14,06:10,0.159,0.146,0.230,0.223,0.229,0.124,0.079,north,2.8,No
2021/09/14,06:20,0.160,0.147,0.232,0.224,0.229,0.124,0.080,north,2.9,No
2021/09/14,06:30,0.160,0.145,0.231,0.223,0.230,0.124,0.080,north-northwest,2.4,No
2021/09/14,06:40,0.159,0.146,0.231,0.223,0.227,0.124,0.079,north-northwest,2.3,No
2021/09/14,06:50,0.161,0.146,0.231,0.223,0.231,0.124,0.080,north-northwest,1.5,No
2021/09/14,07:00,0.159,0.146,0.229,0.223,0.230,0.124,0.079,north-northwest,2.4,No
2021/09/14,07:10,0.160,0.146,0.232,0.224,0.229,0.124,0.078,north-northwest,0.9,No
2021/09/14,07:20,0.159,0.145,0.229,0.221,0.231,0.123,0.079,north-northwest,2.5,No
2021/09/14,07:30,0.161,0.146,0.231,0.223,0.228,0.124,0.079,northwest,0.7,No
2021/09/14,07:40,0.161,0.147,0.230,0.224,0.230,0.124,0.079,north-northwest,1.3,No
2021/09/14,07:50,0.159,0.145,0.231,0.222,0.231,0.124,0.079,north,1.6,No
2021/09/14,08:00,0.161,0.147,0.233,0.225,0.228,0.124,0.079,north-northwest,1.8,No
2021/09/14,08:10,0.159,0.145,0.230,0.222,0.230,0.124,0.079,north-northwest,1.7,No
2021/09/14,08:20,0.159,0.146,0.232,0.221,0.230,0.124,0.078,north-northwest,2.0,No
2021/09/14,08:30,0.161,0.147,0.231,0.223,0.228,0.124,0.079,north-northwest,1.6,No
2021/09/14,08:40,0.160,0.145,0.229,0.222,0.228,0.124,0.079,north,1.6,No
2021/09/14,08:50,0.160,0.146,0.232,0.221,0.232,0.124,0.078,north-northwest,1.6,No
2021/09/14,09:00,0.161,0.147,0.231,0.224,0.229,0.123,0.079,north,1.3,No
2021/09/14,09:10,0.159,0.146,0.231,0.222,0.227,0.124,0.080,north-northwest,1.5,No
2021/09/14,09:20,0.158,0.145,0.228,0.221,0.228,0.125,0.078,north,1.8,No
2021/09/14,09:30,0.161,0.145,0.231,0.222,0.230,0.124,0.078,northeast,1.9,No
2021/09/14,09:40,0.161,0.147,0.233,0.224,0.228,0.124,0.077,north,2.0,No
2021/09/14,09:50,0.160,0.145,0.231,0.223,0.228,0.124,0.077,northeast,2.6,No
2021/09/14,10:00,0.158,0.145,0.229,0.222,0.228,0.124,0.076,northeast,0.9,No
2021/09/14,10:10,0.157,0.145,0.229,0.221,0.227,0.124,0.076,east-northeast,1.6,No
2021/09/14,10:20,0.157,0.147,0.229,0.222,0.227,0.124,0.076,east-northeast,2.2,No
2021/09/14,10:30,0.157,0.146,0.228,0.221,0.227,0.123,0.078,east,1.5,No
2021/09/14,10:40,0.159,0.146,0.228,0.221,0.227,0.124,0.077,east-northeast,2.2,No
2021/09/14,10:50,0.162,0.147,0.232,0.221,0.228,0.124,0.078,east,2.4,No
2021/09/14,11:00,0.160,0.145,0.232,0.223,0.231,0.125,0.079,east-southeast,1.8,No
2021/09/14,11:10,0.159,0.146,0.231,0.225,0.232,0.125,0.080,east,2.4,No
2021/09/14,11:20,0.158,0.146,0.231,0.224,0.230,0.124,0.079,east-southeast,2.1,No
2021/09/14,11:30,0.159,0.145,0.229,0.223,0.230,0.124,0.078,east,2.0,No
2021/09/14,11:40,0.161,0.145,0.229,0.223,0.228,0.124,0.079,east-northeast,2.6,No
2021/09/14,11:50,0.160,0.145,0.233,0.222,0.228,0.124,0.079,east,2.3,No
2021/09/14,12:00,0.159,0.144,0.233,0.221,0.228,0.125,0.079,east-northeast,2.7,No
2021/09/14,12:10,0.159,0.145,0.230,0.220,0.228,0.125,0.079,east-northeast,2.2,No
2021/09/14,12:20,0.158,0.148,0.231,0.223,0.229,0.124,0.079,east-northeast,2.1,No
2021/09/14,12:30,0.158,0.147,0.230,0.222,0.229,0.124,0.079,east,2.9,No
2021/09/14,12:40,0.160,0.146,0.229,0.225,0.228,0.124,0.078,east-northeast,1.5,No
2021/09/14,12:50,0.161,0.145,0.233,0.225,0.232,0.125,0.079,east-northeast,2.0,No
2021/09/14,13:00,0.160,0.146,0.232,0.224,0.233,0.125,0.080,northeast,2.0,No
2021/09/14,13:10,0.158,0.146,0.230,0.223,0.230,0.125,0.079,east-northeast,1.8,No
2021/09/14,13:20,0.159,0.147,0.230,0.222,0.229,0.124,0.079,north-northeast,2.0,No
2021/09/14,13:30,0.162,0.147,0.231,0.226,0.228,0.124,0.079,east-northeast,2.0,No
2021/09/14,13:40,0.162,0.145,0.234,0.224,0.228,0.125,0.079,north-northeast,1.3,No
2021/09/14,13:50,0.160,0.147,0.232,0.224,0.232,0.124,0.079,east,1.3,No
2021/09/14,14:00,0.158,0.147,0.229,0.222,0.232,0.124,0.078,east-northeast,1.6,No
2021/09/14,14:10,0.160,0.145,0.233,0.224,0.229,0.124,0.078,east,1.3,No
2021/09/14,14:20,0.162,0.145,0.234,0.224,0.229,0.125,0.079,east,1.6,No
2021/09/14,14:30,0.159,0.145,0.231,0.225,0.228,0.124,0.079,east-northeast,1.8,No
2021/09/14,14:40,0.159,0.147,0.230,0.224,0.227,0.124,0.078,east,1.7,No
2021/09/14,14:50,0.158,0.147,0.230,0.222,0.229,0.124,0.078,east-southeast,1.5,No
2021/09/14,15:00,0.160,0.146,0.234,0.224,0.232,0.125,0.079,east,1.3,No
2021/09/14,15:10,0.162,0.146,0.231,0.226,0.231,0.125,0.079,east-southeast,1.8,No
2021/09/14,15:20,0.160,0.147,0.230,0.223,0.229,0.124,0.078,east-northeast,0.6,No
2021/09/14,15:30,0.159,0.147,0.234,0.222,0.227,0.123,0.079,east-southeast,0.9,No
2021/09/14,15:40,0.161,0.146,0.232,0.225,0.232,0.124,0.078,-,CALM,No
2021/09/14,15:50,0.162,0.147,0.231,0.225,0.231,0.124,0.078,southeast,0.8,No
2021/09/14,16:00,0.160,0.146,0.232,0.223,0.230,0.124,0.078,-,CALM,No
2021/09/14,16:10,0.159,0.145,0.233,0.225,0.228,0.124,0.078,-,CALM,No
2021/09/14,16:20,0.161,0.147,0.230,0.226,0.232,0.125,0.079,-,CALM,No
2021/09/14,16:30,0.160,0.146,0.233,0.223,0.231,0.124,0.078,-,CALM,No
2021/09/14,16:40,0.160,0.146,0.231,0.225,0.228,0.124,0.079,southeast,0.8,No
2021/09/14,16:50,0.162,0.146,0.231,0.226,0.230,0.124,0.079,-,CALM,No
2021/09/14,17:00,0.160,0.145,0.232,0.223,0.231,0.125,0.078,-,CALM,No
2021/09/14,17:10,0.159,0.148,0.231,0.226,0.229,0.124,0.079,-,CALM,No
2021/09/14,17:20,0.160,0.146,0.233,0.224,0.232,0.125,0.079,-,CALM,No
2021/09/14,17:30,0.160,0.146,0.232,0.224,0.232,0.124,0.079,-,CALM,No
2021/09/14,17:40,0.160,0.147,0.231,0.225,0.228,0.124,0.079,-,CALM,No
2021/09/14,17:50,0.161,0.146,0.233,0.223,0.231,0.125,0.078,southeast,0.6,No
2021/09/14,18:00,0.160,0.146,0.231,0.225,0.230,0.123,0.079,-,CALM,No
2021/09/14,18:10,0.161,0.146,0.233,0.225,0.229,0.124,0.078,southwest,0.6,No
2021/09/14,18:20,0.160,0.147,0.234,0.226,0.232,0.125,0.080,-,CALM,No
2021/09/14,18:30,0.160,0.147,0.234,0.225,0.230,0.125,0.079,-,CALM,No
2021/09/14,18:40,0.162,0.147,0.233,0.223,0.232,0.125,0.078,-,CALM,No
2021/09/14,18:50,0.160,0.148,0.232,0.226,0.231,0.124,0.079,-,CALM,No
2021/09/14,19:00,0.161,0.145,0.234,0.223,0.229,0.125,0.078,northwest,0.7,No
2021/09/14,19:10,0.159,0.147,0.232,0.225,0.231,0.124,0.080,-,CALM,No
2021/09/14,19:20,0.160,0.147,0.233,0.223,0.229,0.124,0.079,north,0.7,No
2021/09/14,19:30,0.160,0.147,0.232,0.224,0.232,0.124,0.079,-,CALM,No
2021/09/14,19:40,0.160,0.146,0.232,0.225,0.229,0.124,0.079,-,CALM,No
2021/09/14,19:50,0.161,0.147,0.233,0.224,0.230,0.125,0.079,-,CALM,No
2021/09/14,20:00,0.160,0.147,0.232,0.225,0.231,0.125,0.079,-,CALM,No
2021/09/14,20:10,0.161,0.147,0.233,0.223,0.230,0.124,0.079,northwest,0.6,No
2021/09/14,20:20,0.160,0.147,0.231,0.226,0.232,0.124,0.079,-,CALM,No
2021/09/14,20:30,0.160,0.146,0.234,0.224,0.228,0.124,0.079,-,CALM,No
2021/09/14,20:40,0.160,0.147,0.231,0.226,0.231,0.125,0.080,northwest,0.6,No
2021/09/14,20:50,0.160,0.147,0.232,0.224,0.231,0.124,0.080,-,CALM,No
2021/09/14,21:00,0.161,0.147,0.231,0.225,0.230,0.125,0.078,-,CALM,No
2021/09/14,21:10,0.161,0.146,0.234,0.224,0.231,0.124,0.079,-,CALM,No
2021/09/14,21:20,0.161,0.147,0.232,0.223,0.230,0.124,0.080,-,CALM,No
2021/09/14,21:30,0.161,0.147,0.233,0.226,0.231,0.124,0.079,-,CALM,No
2021/09/14,21:40,0.159,0.148,0.233,0.223,0.229,0.124,0.079,-,CALM,No
2021/09/14,21:50,0.161,0.147,0.233,0.225,0.231,0.125,0.080,-,CALM,No
2021/09/14,22:00,0.160,0.147,0.233,0.224,0.230,0.125,0.079,-,CALM,No
2021/09/14,22:10,0.159,0.147,0.233,0.224,0.228,0.124,0.079,-,CALM,No
2021/09/14,22:20,0.161,0.147,0.233,0.224,0.232,0.125,0.080,-,CALM,No
2021/09/14,22:30,0.160,0.146,0.231,0.225,0.229,0.124,0.079,-,CALM,No
2021/09/14,22:40,0.161,0.146,0.234,0.226,0.231,0.125,0.080,north,1.8,No
2021/09/14,22:50,0.160,0.147,0.232,0.225,0.231,0.125,0.079,north-northwest,2.9,No
2021/09/14,23:00,0.161,0.147,0.233,0.227,0.230,0.124,0.079,north-northwest,3.8,No
2021/09/14,23:10,0.161,0.148,0.232,0.225,0.232,0.125,0.080,north-northwest,3.9,No
2021/09/14,23:20,0.161,0.146,0.233,0.227,0.230,0.124,0.080,north-northwest,4.3,No
2021/09/14,23:30,0.161,0.148,0.234,0.226,0.231,0.125,0.080,north-northwest,4.1,No
2021/09/14,23:40,0.161,0.146,0.231,0.224,0.229,0.125,0.079,north-northwest,4.2,No
2021/09/14,23:50,0.162,0.148,0.234,0.227,0.231,0.125,0.080,north-northwest,3.8,No
